Regional Weather Roundup
Issued by NWS

Home | Current Version | Previous Version | Graphics & Text | Print | Product List | Glossary On
Versions: 1 2 3 4 5 6 7 8 9 10 11 12 13 14 15 16 17 18 19 20 21 22 23 24 25 26 27 28 29 30 31 32 33 34 35 36 37 38 39 40 41 42 43 44 45 46 47 48 49 50
000
ASUS43 KLOT 300909
RWRIL

ILLINOIS REGIONAL WEATHER ROUNDUP
NATIONAL WEATHER SERVICE CHICAGO/ROMEOVILLE IL
400 AM CDT FRI SEP 30 2016

NOTE: "FAIR" INDICATES FEW OR NO CLOUDS BELOW 12,000 FEET WITH NO
SIGNIFICANT WEATHER AND/OR OBSTRUCTIONS TO VISIBILITY.

* THESE STATIONS ARE NOT UNDER NWS QUALITY CONTROL. THEY ALSO MAY NOT
  REPORT WEATHER SUCH AS PRECIPITATION OR FOG.

ILZ001-002-007-009-015-016-024-301000-
NORTHWEST ILLINOIS

CITY           SKY/WX    TMP DP  RH WIND       PRES   REMARKS
MOLINE         CLOUDY    60  53  77 NE12      30.22R
STERLING*      CLOUDY    59  55  87 N8        30.20S
SAVANNA*       MOCLDY    57  53  88 N6        30.22S
$$

ILZ003-004-008-010-011-017-018-301000-
NORTH CENTRAL ILLINOIS

CITY           SKY/WX    TMP DP  RH WIND       PRES   REMARKS
ROCKFORD       CLOUDY    60  55  83 N15       30.22S
FREEPORT*      CLOUDY    57  54  88 N6        30.24S
ROCHELLE*      CLOUDY    58  57  96 N10       30.19S
DE KALB*       CLOUDY    59  57  92 N8        30.18S
$$

ILZ005-006-012>014-019>023-301000-
NORTHEAST ILLINOIS

CITY           SKY/WX    TMP DP  RH WIND       PRES   REMARKS
CHICAGO-OHARE  LGT RAIN  61  58  90 NE12      30.15F
CHICAGO-MIDWAY DRIZZLE   62  58  86 NE12      30.14S FOG
AURORA         CLOUDY    61  58  90 NE10      30.15S FOG
LANSING*       CLOUDY    60  59  97 NE8G17    30.13S
JOLIET*        CLOUDY    61  60  96 NE8       30.14S FOG
WAUKEGAN       CLOUDY    62  58  86 NE10      30.17F
DUPAGE AIRPORT CLOUDY    60  57  89 NE12      30.15S FOG
KANKAKEE*      CLOUDY    59  58  96 N6        30.12F
WHEELING       CLOUDY    61  58  90 NE9       30.17F
MORRIS*        CLOUDY    60  58  94 NE5       30.13S
ROMEOVILLE*    DRIZZLE   59  59 100 NE13      30.14S
NORTHERLY ISL    N/A     61  57  87 NE18        N/A
$$

LMZ740>746-301000-
SOUTHERN LAKE MICHIGAN

STATION/POSITION SKY/WX   TEMP    WIND        PRES    VSBY  WAVE
                          AIR SEA DIR/SP/G                  HT/PER
                          (F)     (DEG/KT/KT) (MB)    (MI)  (FT/S)
SOUTHERN BUOY              63 68   60/ 19/ 21 1021.3S         5/ 6
WILMETTE HARBOR            61 56   80/ 16/ 21   N/A           7/ 7
HARRISON CRIB              63      50/ 24/ 27   N/A
BURNHAM HARBOR             61      50/ 17/ 17   N/A
CALUMET HARBOR             61      40/ 11/ 18 1019.9F
BURNS HARBOR               61      50/ 18/ 23 1020.0F
MICHIGAN CITY              60      20/ 18/ 20   N/A
MICHIGAN CITY 6N           61 64   40/ 16/ 23   N/A           6/ 6
ST. JOSEPH                 57 56   30/ 10/ 12 1021.0          4/ 6
$$

ILZ025>027-034>036-040-047-049-050-058-095>099-301000-
WEST-CENTRAL ILLINOIS

CITY           SKY/WX    TMP DP  RH WIND       PRES   REMARKS
QUINCY         CLEAR     57  53  86 N8        30.17F
GALESBURG*     CLOUDY    58  54  84 N8        30.19S
MACOMB*        MOCLDY    56  53  89 N9        30.20S
JACKSONVILLE*  CLOUDY    58  56  92 N10       30.15S
PITTSFIELD*    CLOUDY    60  56  84 N5        30.17F
$$

ILZ028>032-037-038-041>044-048-051>054-059>061-301000-
CENTRAL ILLINOIS

CITY           SKY/WX    TMP DP  RH WIND       PRES   REMARKS
PONTIAC        RAIN      61  61 100 N7        30.13F
BLOOMINGTON    LGT RAIN  59  58  96 N9        30.13S FOG
DECATUR        CLOUDY    60  57  89 N10       30.10F
PEORIA         CLOUDY    60  58  92 N9        30.15F
LACON*         DRIZZLE   59  57  95 N6        30.16R
LINCOLN*       CLOUDY    60  60  98 N5        30.13S
SPRINGFIELD    CLOUDY    59  57  93 NW8       30.14R FOG
TAYLORVILLE    CLOUDY    57  56  99 N5        30.12R FOG
$$

ILZ033-039-045-046-055>057-062-063-301000-
EAST-CENTRAL ILLINOIS

CITY           SKY/WX    TMP DP  RH WIND       PRES   REMARKS
CHAMPAIGN      CLOUDY    60  57  89 N13       30.09S
RANTOUL*       CLOUDY    61  60  96 N10       30.09F
MATTOON        LGT RAIN  59  57  93 N8        30.07F FOG
PARIS*         CLOUDY    59  59 100 CALM      30.06F
$$

ILZ079-100>102-301000-
SOUTHWEST ILLINOIS

CITY           SKY/WX    TMP DP  RH WIND       PRES   REMARKS
ALTON          CLOUDY    59  57  93 N6        30.12F
BELLEVILLE     MOCLDY    60  60  99 N5        30.09F
CAHOKIA*       CLOUDY    62  57  83 N8        30.12F
SPARTA*        CLOUDY    59  58  96 NW8       30.11S
$$

ILZ064>066-069>071-074>076-080>082-084>086-088>090-092>094-301000-
SOUTH-CENTRAL ILLINOIS

CITY           SKY/WX    TMP DP  RH WIND       PRES   REMARKS
CARBONDALE     CLOUDY    59  59 100 NW7       30.08F
CAIRO*         CLOUDY    59  57  95 NW5       30.08S
EFFINGHAM*     DRIZZLE   59  59 100 NW6       30.09S
MARION         CLOUDY    59  59 100 NW3       30.09R
MT. VERNON     CLOUDY    57  54  88 N6        30.08S
CENTRALIA*     CLOUDY    60  59  96 N7        30.08S
SALEM*         CLOUDY    60  58  92 N3        30.08F FOG
METROPOLIS*    CLOUDY    59  58  96 W3        30.08S
$$

ILZ067-068-072-073-078-083-087-091-301000-
SOUTHEAST ILLINOIS

CITY           SKY/WX    TMP DP  RH WIND       PRES   REMARKS
LAWRENCEVILLE  CLOUDY    59  56  89 N10       30.03F
FLORA*         MOCLDY    58  57  96 NW5       30.07S FOG
FAIRFIELD*       N/A     57  57  98 N3        30.06R
HARRISBURG*    CLOUDY    57  57 100 NW6       30.06F FOG
ROBINSON*      DRIZZLE   58  57  99 N6        30.05F
CARMI*         CLEAR     54  54 100 NW6       30.04F FOG
$$

ABBREVIATIONS USED IN REMARKS
   TC - TEMPERATURE IN CELSIUS
  WCI - WIND CHILL INDEX
   HX - HEAT INDEX
  VSB - VISIBILITY
$$





USA.gov is the U.S. government's official web portal to all federal, state and local government web resources and services.